Hourly Weather Rudenec

Today, 20 April, Tuesday

Time Temperature Precipitation Wind Pressure Humidity
00:00 +5°C° 0 mm 4 mps 749 mmHg 87%
01:00 +5°C° 0 mm 4 mps 749 mmHg 87%
02:00 +5°C° 0 mm 3 mps 749 mmHg 87%
03:00 +5°C° 0 mm 3 mps 748 mmHg 88%
04:00 +5°C° 0 mm 3 mps 748 mmHg 88%
05:00 +5°C° 0 mm 3 mps 748 mmHg 89%
06:00 +5°C° 0 mm 4 mps 748 mmHg 88%
07:00 +5°C° 0 mm 4 mps 748 mmHg 86%
08:00 +5°C° 0 mm 4 mps 748 mmHg 85%
09:00 +6°C° 0 mm 4 mps 747 mmHg 82%
10:00 +6°C° 0 mm 4 mps 747 mmHg 80%
11:00 +7°C° 0 mm 4 mps 747 mmHg 77%
12:00 +7°C° 0.1 mm 4 mps 746 mmHg 75%
13:00 +8°C° 0.1 mm 4 mps 746 mmHg 74%
14:00 +8°C° 0.1 mm 4 mps 746 mmHg 72%
15:00 +8°C° 0.1 mm 4 mps 745 mmHg 75%
16:00 +7°C° 0.1 mm 4 mps 745 mmHg 78%
17:00 +7°C° 0.1 mm 4 mps 745 mmHg 81%
18:00 +6°C° 0 mm 4 mps 744 mmHg 84%
19:00 +6°C° 0 mm 4 mps 744 mmHg 86%
20:00 +5°C° 0 mm 3 mps 744 mmHg 88%
21:00 +5°C° 0.2 mm 4 mps 744 mmHg 89%
22:00 +5°C° 0.2 mm 4 mps 744 mmHg 91%
23:00 +4°C° 0.2 mm 4 mps 743 mmHg 92%

Tomorrow, 21 April, Wednesday

Time Temperature Precipitation Wind Pressure Humidity
00:00 +4°C° 0.2 mm 3 mps 743 mmHg 92%
01:00 +4°C° 0.2 mm 3 mps 743 mmHg 93%
02:00 +4°C° 0.2 mm 3 mps 743 mmHg 93%
03:00 +4°C° 0.2 mm 3 mps 743 mmHg 93%
04:00 +4°C° 0.2 mm 3 mps 743 mmHg 93%
05:00 +4°C° 0.2 mm 3 mps 743 mmHg 93%
06:00 +4°C° 0.1 mm 3 mps 743 mmHg 93%
07:00 +4°C° 0.1 mm 3 mps 744 mmHg 93%
08:00 +4°C° 0.1 mm 3 mps 744 mmHg 93%
09:00 +4°C° 0.1 mm 3 mps 744 mmHg 91%
10:00 +4°C° 0.1 mm 3 mps 744 mmHg 89%
11:00 +5°C° 0.1 mm 3 mps 744 mmHg 88%
12:00 +5°C° 0.1 mm 3 mps 745 mmHg 85%
13:00 +7°C° 0.1 mm 2 mps 745 mmHg 83%
14:00 +7°C° 0.1 mm 2 mps 745 mmHg 80%
15:00 +7°C° 0 mm 2 mps 745 mmHg 77%
16:00 +8°C° 0 mm 2 mps 745 mmHg 75%
17:00 +9°C° 0 mm 1 mps 745 mmHg 72%
18:00 +8°C° 0 mm 1 mps 745 mmHg 76%
19:00 +6°C° 0 mm 2 mps 746 mmHg 79%
20:00 +5°C° 0 mm 2 mps 746 mmHg 83%
21:00 +5°C° 0 mm 2 mps 746 mmHg 84%
22:00 +5°C° 0 mm 2 mps 746 mmHg 84%
23:00 +4°C° 0 mm 2 mps 746 mmHg 85%

Day after tomorrow, 22 April, Thursday

Time Temperature Precipitation Wind Pressure Humidity
00:00 +4°C° 0 mm 2 mps 746 mmHg 87%
01:00 +3°C° 0 mm 3 mps 746 mmHg 89%
02:00 +3°C° 0 mm 3 mps 746 mmHg 90%
03:00 +3°C° 0 mm 3 mps 746 mmHg 91%
04:00 +3°C° 0 mm 3 mps 747 mmHg 92%
05:00 +2°C° 0 mm 3 mps 747 mmHg 93%
06:00 +4°C° 0 mm 3 mps 747 mmHg 89%
07:00 +6°C° 0 mm 4 mps 747 mmHg 85%
08:00 +8°C° 0 mm 4 mps 747 mmHg 80%
09:00 +9°C° 0.1 mm 5 mps 747 mmHg 74%
10:00 +12°C° 0.1 mm 5 mps 747 mmHg 68%
11:00 +13°C° 0.1 mm 5 mps 747 mmHg 62%
12:00 +14°C° 0.2 mm 5 mps 747 mmHg 56%
13:00 +15°C° 0.2 mm 5 mps 747 mmHg 51%
14:00 +16°C° 0.2 mm 5 mps 747 mmHg 46%
15:00 +15°C° 0 mm 5 mps 747 mmHg 51%
16:00 +14°C° 0 mm 4 mps 747 mmHg 56%
17:00 +14°C° 0 mm 4 mps 747 mmHg 61%
18:00 +12°C° 0 mm 4 mps 747 mmHg 68%
19:00 +11°C° 0 mm 4 mps 747 mmHg 74%
20:00 +10°C° 0 mm 4 mps 747 mmHg 80%
21:00 +8°C° 0 mm 4 mps 747 mmHg 84%
22:00 +8°C° 0 mm 4 mps 747 mmHg 87%
23:00 +7°C° 0 mm 4 mps 746 mmHg 91%

23 April, Friday

Time Temperature Precipitation Wind Pressure Humidity
00:00 +7°C° 0 mm 4 mps 747 mmHg 92%
01:00 +7°C° 0 mm 4 mps 747 mmHg 93%
02:00 +7°C° 0 mm 4 mps 747 mmHg 94%
03:00 +7°C° 0 mm 3 mps 747 mmHg 93%
04:00 +7°C° 0 mm 2 mps 747 mmHg 93%
05:00 +8°C° 0 mm 1 mps 747 mmHg 92%
06:00 +7°C° 0.1 mm 2 mps 747 mmHg 91%
07:00 +7°C° 0.1 mm 3 mps 748 mmHg 89%
08:00 +7°C° 0.1 mm 3 mps 748 mmHg 87%
09:00 +4°C° 0.9 mm 4 mps 748 mmHg 90%
10:00 +3°C° 0.9 mm 4 mps 748 mmHg 93%
11:00 +1°C° 0.9 mm 4 mps 749 mmHg 95%
12:00 +2°C° 0.9 mm 3 mps 749 mmHg 94%
13:00 +2°C° 0.9 mm 3 mps 749 mmHg 92%
14:00 +4°C° 0.9 mm 2 mps 749 mmHg 90%
15:00 +4°C° 0.1 mm 2 mps 749 mmHg 88%
16:00 +5°C° 0.1 mm 2 mps 749 mmHg 86%
17:00 +5°C° 0.1 mm 2 mps 748 mmHg 84%
18:00 +4°C° 0 mm 3 mps 748 mmHg 86%
19:00 +3°C° 0 mm 3 mps 748 mmHg 89%
20:00 +3°C° 0 mm 3 mps 748 mmHg 92%
21:00 +2°C° 0 mm 3 mps 748 mmHg 92%
22:00 +2°C° 0 mm 3 mps 748 mmHg 92%
23:00 +1°C° 0 mm 3 mps 748 mmHg 92%

24 April, Saturday

Time Temperature Precipitation Wind Pressure Humidity
00:00 +1°C° 0 mm 3 mps 747 mmHg 92%
01:00 0°C° 0 mm 3 mps 747 mmHg 92%
02:00 0°C° 0 mm 3 mps 747 mmHg 92%
03:00 0°C° 0 mm 3 mps 747 mmHg 91%
04:00 0°C° 0 mm 3 mps 747 mmHg 91%
05:00 +1°C° 0 mm 3 mps 747 mmHg 91%
06:00 0°C° 0.1 mm 4 mps 747 mmHg 91%
07:00 0°C° 0.1 mm 5 mps 747 mmHg 90%
08:00 0°C° 0.1 mm 5 mps 747 mmHg 89%
09:00 +1°C° 0.2 mm 6 mps 748 mmHg 79%
10:00 +2°C° 0.2 mm 6 mps 748 mmHg 69%
11:00 +3°C° 0.2 mm 7 mps 748 mmHg 59%
12:00 +3°C° 0 mm 7 mps 748 mmHg 55%
13:00 +4°C° 0 mm 7 mps 748 mmHg 52%
14:00 +4°C° 0 mm 7 mps 748 mmHg 49%
15:00 +4°C° 0.2 mm 7 mps 748 mmHg 52%
16:00 +4°C° 0.2 mm 6 mps 748 mmHg 56%
17:00 +4°C° 0.2 mm 6 mps 748 mmHg 60%
18:00 +3°C° 0 mm 5 mps 748 mmHg 64%
19:00 +3°C° 0 mm 4 mps 748 mmHg 69%
20:00 +2°C° 0 mm 3 mps 748 mmHg 74%
21:00 0°C° 0 mm 4 mps 748 mmHg 76%
22:00 0°C° 0 mm 4 mps 748 mmHg 79%
23:00 -1°C° 0 mm 4 mps 748 mmHg 81%

25 April, Sunday

Time Temperature Precipitation Wind Pressure Humidity
00:00 -1°C° 0 mm 4 mps 748 mmHg 83%
01:00 -1°C° 0 mm 4 mps 748 mmHg 84%
02:00 0°C° 0 mm 3 mps 748 mmHg 86%
03:00 0°C° 0 mm 3 mps 748 mmHg 86%
04:00 0°C° 0 mm 3 mps 748 mmHg 87%
05:00 0°C° 0 mm 3 mps 748 mmHg 87%
06:00 0°C° 0 mm 4 mps 748 mmHg 81%
07:00 +1°C° 0 mm 4 mps 748 mmHg 75%
08:00 +2°C° 0 mm 5 mps 748 mmHg 69%
09:00 +3°C° 0.1 mm 5 mps 748 mmHg 61%
10:00 +3°C° 0.1 mm 6 mps 748 mmHg 53%
11:00 +4°C° 0.1 mm 6 mps 748 mmHg 45%
12:00 +5°C° 0 mm 7 mps 748 mmHg 45%
13:00 +5°C° 0 mm 7 mps 748 mmHg 45%
14:00 +5°C° 0 mm 7 mps 748 mmHg 45%
15:00 +5°C° 0.2 mm 7 mps 748 mmHg 50%
16:00 +5°C° 0.2 mm 7 mps 748 mmHg 54%
17:00 +5°C° 0.2 mm 7 mps 748 mmHg 58%
18:00 +4°C° 0.2 mm 7 mps 748 mmHg 62%
19:00 +3°C° 0.2 mm 7 mps 748 mmHg 66%
20:00 +2°C° 0.2 mm 6 mps 748 mmHg 70%
21:00 +2°C° 0 mm 6 mps 748 mmHg 74%
22:00 +1°C° 0 mm 6 mps 748 mmHg 78%
23:00 +1°C° 0 mm 6 mps 748 mmHg 81%
Show more